Flag for Germany Weather past 2 weeks in Ellwangen (Jagst), Baden-Württemberg, Germany

Now
72 °F

Scattered clouds.


Feels Like: 77 °F
Forecast: 50 / 77 °F
Wind: 8 mph from West

Location: Stoetten

Current Time: Jun 3, 2015 at 2:01:01 PM

Latest Report: Jun 3, 2015 at 1:00 PM


Visibility: 47 mi

Pressure: 30.13 "Hg

Humidity: 38%

Dew point: 45 °F

Location of Ellwangen (Jagst)Location

Historic Weather in Ellwangen (Jagst) — Graph

°F

Ellwangen (Jagst) temperature yesterday

Maximum temperature yesterday: 71 °F (at 5:00 PM)
Minimum temperature yesterday: 52 °F (at 12:00 AM)
Average temperature yesterday: 62 °F

Past Weeks' High & Low Weather Summary

 TemperatureHumidityPressure
High72 °F (Jun 3, 1:00 PM)100% (May 20, 12:00 PM)30.35 "Hg (May 20, 12:00 PM)
Low40 °F (May 20, 1:00 PM)38% (May 22, 5:00 PM)29.76 "Hg (May 29, 6:00 PM)
Average53 °F74%30.06 "Hg
* Reported May 19 1:00 PM — Jun 3 1:00 PM, Ellwangen (Jagst), Weather by CustomWeather, © 2015

Note: Actual official high and low records may vary slightly from our data, if they occured in-between our weather recording intervals... More about our weather records

Advertising

Ellwangen (Jagst) weather history for previous 24 hours

 ConditionsComfort  
Time TempWeatherWind HumidityBarometerVisibility
1:00 PM
Wed, Jun 3
72 °FScattered clouds.8 mph38%30.13 "Hg47 mi
12:00 PM70 °FScattered clouds.10 mph45%30.14 "Hg47 mi
11:00 AM68 °FScattered clouds.7 mph56%30.14 "Hg47 mi
10:00 AM67 °FScattered clouds.5 mph64%30.14 "Hg47 mi
9:00 AM64 °FPartly sunny.5 mph70%30.14 "Hg47 mi
8:00 AM65 °FScattered clouds.5 mph64%30.13 "Hg47 mi
7:00 AM62 °FPassing clouds.6 mph65%30.13 "Hg43 mi
6:00 AM58 °FPassing clouds.6 mph70%30.14 "Hg43 mi
5:00 AM60 °FClear.7 mph67%30.12 "Hg28 mi
4:00 AM61 °FClear.6 mph62%30.11 "Hg31 mi
3:00 AM60 °FClear.5 mph63%30.11 "Hg34 mi
2:00 AM60 °FClear.5 mph63%30.11 "Hg31 mi
1:00 AM61 °FClear.7 mph62%30.10 "Hg31 mi
12:00 AM62 °FClear.7 mph62%30.09 "Hg31 mi
11:00 PM
Tue, Jun 2
63 °FClear.6 mph60%30.08 "Hg31 mi
10:00 PM64 °FClear.7 mph56%30.07 "Hg28 mi
9:00 PM66 °FPassing clouds.6 mph53%30.04 "Hg47 mi
8:00 PM69 °FPassing clouds.7 mph48%30.02 "Hg47 mi
7:00 PM71 °FScattered clouds.6 mph49%30.01 "Hg47 mi
6:00 PM70 °FScattered clouds.5 mph52%30.01 "Hg47 mi
5:00 PM71 °FPartly sunny.7 mph53%30.00 "Hg47 mi
4:00 PM71 °FScattered clouds.7 mph53%30.00 "Hg47 mi
3:00 PM70 °FScattered clouds.7 mph55%30.01 "Hg47 mi
2:00 PM69 °FScattered clouds.8 mph62%30.02 "Hg47 mi
Weather by CustomWeather, © 2015

See weather overviewHow to use our weather pages